Dewpoint
3 -4 -2 2 3 5 9 10 9 7 6 5 5 3 0 2 0 -5 -7 -4 -2 -2 -3 -3 -0 0 0 1 6 5 3 2 3 1 2 3 4 9 8 7 5 6 9
8 1 -2 -0 3 5 7 8 9 8 8 8 7 6 4 3 1 -2 -10 -8 -4 -3 -3 -4 -3 -2 1 6 6 4 3 6 7 7 7 4 6 9 8 8 6 4 9
10 5 -3 -2 2 5 6 8 10 10 9 9 9 8 6 3 1 -4 -8 -11 -8 -6 -4 -4 -3 -2 -0 4 5 4 7 9 10 11 9 11 10 10 11 10 10 6 5
10 8 -0 -1 -0 5 7 8 10 10 10 10 9 8 7 5 1 -5 -8 -10 -9 -8 -7 -5 -4 -4 -2 2 6 3 7 8 9 9 10 9 8 4 11 11 11 11 10
10 10 4 -1 -2 1 5 7 9 10 10 10 9 7 6 5 2 -5 -8 -9 -8 -8 -7 -4 -3 -3 -2 1 6 3 6 8 8 9 10 9 9 5 -5 9 10 11 11
11 11 9 -0 -1 -1 1 5 7 8 9 9 9 6 5 3 1 -5 -8 -9 -8 -7 -6 -4 -1 -2 -2 -0 4 5 6 7 6 5 6 7 7 5 1 -10 10 11 10
11 12 11 2 1 2 2 4 4 5 6 5 5 4 3 2 -0 -4 -7 -8 -7 -7 -5 -3 0 0 -0 1 2 6 6 6 7 6 5 7 8 -4 -12 -16 -12 6 6
9 8 10 4 2 3 3 3 3 5 5 5 5 4 3 2 -2 -6 -7 -7 -6 -5 -4 -1 2 1 1 2 3 5 5 7 7 7 5 7 8 6 3 -18 -16 -13 -8
10 7 4 3 3 4 5 5 5 5 6 5 5 5 4 2 -2 -6 -7 -7 -6 -4 -3 0 3 2 2 3 4 5 7 6 6 5 5 5 6 5 -11 -17 -18 -17 -15
9 8 3 3 3 5 6 7 7 7 7 7 6 6 6 4 1 -5 -6 -5 -5 -4 -2 2 5 4 4 4 4 5 6 6 6 5 5 5 5 5 3 1 -18 -18 -17
6 8 6 2 2 4 6 7 7 7 7 7 7 7 6 5 3 -2 -5 -4 -4 -2 -1 5 7 6 5 4 5 5 5 7 6 5 5 4 5 4 4 3 -17 -18 -17
8 8 9 6 3 4 5 6 7 8 7 7 7 7 7 7 5 1 -2 -2 -2 -2 -0 5 8 8 6 5 5 5 5 7 4 5 5 4 3 4 4 3 -4 -19 -17
10 9 9 9 5 2 3 6 7 8 9 9 9 9 9 8 7 5 1 0 3 2 1 1 6 7 8 7 6 5 5 7 5 4 4 4 4 4 2 1 1 -7 -18
12 12 12 13 13 12 7 4 6 8 10 12 12 11 10 10 9 7 4 3 7 11 10 7 6 6 6 7 7 6 6 6 7 5 6 5 5 5 3 0 -2 -2 -14
14 14 14 14 13 14 13 7 11 13 13 13 13 12 12 12 11 10 7 5 6 10 11 11 10 8 9 8 8 7 7 5 6 6 6 5 5 6 4 2 -1 -3 -8
13 14 13 13 14 14 13 13 14 13 13 14 13 13 12 12 11 11 11 11 11 11 11 12 11 11 10 10 11 10 7 7 5 6 6 5 3 5 5 4 2 -3 -8
11 11 12 13 14 14 13 13 13 13 13 13 12 12 12 12 12 12 11 11 11 12 12 12 12 11 11 9 11 11 10 8 7 7 8 6 5 6 5 4 4 1 -4
12 11 13 14 15 15 14 14 13 13 13 14 13 13 13 11 12 12 13 13 13 13 12 12 12 11 11 11 10 11 10 10 8 7 8 8 8 6 5 5 5 3 2
13 13 14 15 14 14 13 12 12 13 13 13 12 12 13 13 13 14 13 13 13 13 12 12 12 12 12 12 11 11 11 10 10 8 8 8 8 8 7 5 5 5 3
13 13 14 13 13 12 12 12 11 10 7 8 9 10 11 11 12 12 12 12 12 12 12 12 12 12 12 12 12 12 12 10 10 9 9 8 8 8 7 5 5 5 4
10 12 12 12 12 11 10 9 8 3 -0 -2 -5 -11 -11 -6 -2 3 6 8 11 11 11 11 11 12 12 12 12 12 12 11 10 10 9 8 8 8 7 5 4 5 5
2 8 11 11 10 8 5 2 -4 -6 -7 -11 -12 -9 -5 -3 -1 -5 -7 -8 -7 -1 5 9 8 10 10 11 11 11 11 11 10 10 10 8 8 8 7 6 6 5 5
1 0 0 -2 -4 -5 -6 -6 -6 -8 -8 -9 -10 -9 -2 3 3 4 5 4 -5 -4 -1 2 5 8 10 11 11 11 11 9 9 10 10 9 8 7 7 6 6 6 5
1 0 -1 -4 -5 -6 -8 -10 -11 -10 -8 -6 -4 -5 -7 -5 -2 2 3 -1 4 6 4 4 5 5 7 8 8 9 10 10 9 8 8 8 8 7 6 6 6 6 6
-1 -2 -4 -2 -3 -7 -7 -9 -10 -6 -4 -3 -4 -4 -3 -1 1 1 -0 5 5 4 4 4 4 1 1 4 7 7 8 8 7 9 8 8 8 7 6 6 6 6 6
-3 -3 -4 -5 -4 -4 -5 -5 -6 -8 -7 -6 -5 -5 -3 -1 1 3 3 5 6 6 6 6 5 4 2 2 2 5 4 7 7 8 8 8 7 8 8 7 6 6 6
Wind_Speed
23 19 22 23 23 23 24 22 21 20 19 17 15 14 13 11 10 10 11 11 10 9 9 9 9 8 8 8 9 8 8 7 7 8 8 6 7 8 8 9 7 8 8
13 18 23 22 24 23 23 22 20 19 18 17 15 13 11 10 9 9 9 10 9 8 9 9 9 9 9 9 8 9 10 9 9 9 9 9 7 6 7 8 5 5 7
16 18 23 23 23 24 23 22 20 18 16 15 13 11 9 8 7 7 8 8 8 7 8 9 9 9 8 8 9 10 10 9 8 7 8 10 9 7 8 8 8 4 4
11 15 23 23 22 23 22 21 20 17 15 14 12 10 8 6 6 6 6 7 7 7 6 7 7 7 8 9 9 8 8 7 3 2 4 7 8 6 8 8 8 8 8
10 13 19 22 22 22 21 20 19 18 15 13 11 9 7 5 4 4 5 6 5 5 5 6 5 5 6 8 10 9 9 4 1 2 2 5 6 8 6 7 6 6 7
10 12 16 23 22 21 21 19 18 16 14 12 11 8 7 4 3 3 4 5 5 5 4 3 4 4 5 6 8 10 10 6 3 2 2 4 10 11 8 4 7 5 5
10 12 18 24 22 20 19 18 16 15 14 12 11 9 7 5 4 3 4 5 5 5 5 4 3 4 5 5 6 9 12 8 6 4 3 2 7 8 9 6 4 4 4
5 11 22 24 22 20 18 17 16 15 13 12 11 9 7 6 5 5 6 6 6 6 5 5 5 5 5 6 6 8 11 11 9 8 6 5 6 10 11 7 6 5 3
6 8 20 24 23 21 19 18 16 15 14 12 11 9 8 7 7 7 8 8 8 7 6 6 6 6 6 6 8 9 11 13 12 10 8 7 6 9 7 9 8 8 7
7 7 13 22 23 22 21 19 17 16 14 13 12 10 10 9 8 9 10 10 10 9 8 9 8 8 8 8 9 10 12 17 15 14 12 10 9 11 13 12 11 10 9
10 9 11 16 21 22 21 20 19 17 16 15 14 13 13 11 11 11 11 11 12 11 10 11 11 10 10 10 11 11 13 17 18 17 16 13 12 13 13 14 13 12 11
13 12 9 12 18 21 21 20 18 17 16 15 15 15 14 14 13 13 13 14 14 14 14 15 14 13 14 12 11 13 13 18 21 20 19 17 16 15 16 15 14 14 14
12 8 6 5 8 14 19 19 18 16 15 15 16 16 16 16 16 16 15 15 16 17 19 20 18 16 15 15 14 15 15 20 23 24 22 20 17 18 18 16 16 17 17
17 9 6 5 4 2 10 18 17 13 8 6 9 15 17 19 19 19 19 18 17 16 16 17 18 18 17 16 18 18 18 20 24 26 24 23 21 22 23 19 18 18 18
15 11 8 6 2 1 2 13 14 10 6 7 7 5 5 7 10 15 18 18 17 17 19 21 21 18 18 17 18 20 21 20 25 29 27 26 24 24 25 22 20 19 19
12 13 14 13 5 2 5 9 9 11 13 10 9 13 13 11 11 16 15 16 17 18 20 23 23 22 20 18 18 20 20 23 23 27 31 29 28 27 27 26 25 21 21
11 12 13 15 10 7 5 1 10 11 8 11 12 12 13 17 16 18 20 20 20 19 22 25 27 26 26 24 25 24 23 23 26 27 28 31 31 30 30 29 28 26 22
6 8 12 17 13 11 10 7 8 15 14 14 14 15 17 15 15 18 23 24 22 24 27 27 28 29 29 29 28 28 29 28 28 30 30 32 31 33 35 33 31 28 27
9 10 15 15 12 9 5 6 8 12 15 14 16 18 19 20 19 19 25 27 28 30 30 29 30 32 34 35 36 34 34 33 33 33 34 36 36 35 37 38 35 32 30
16 16 18 18 15 10 9 8 7 5 2 3 6 9 11 13 16 20 25 27 29 30 30 29 31 33 35 37 38 42 39 38 37 37 38 39 41 41 40 39 38 38 35
18 19 19 18 14 9 7 6 5 3 3 4 6 10 10 10 13 15 17 19 21 25 26 27 30 33 36 33 37 41 44 43 43 41 42 45 45 44 43 42 41 41 40
21 21 20 17 13 9 6 5 2 2 3 7 12 13 13 14 16 18 18 19 21 25 27 28 30 31 33 32 34 33 31 32 43 47 46 51 48 47 47 46 46 45 44
18 20 20 17 14 10 6 4 3 1 4 9 12 14 16 18 19 20 23 24 26 25 27 28 29 30 34 32 33 31 20 17 21 33 43 50 51 50 50 49 48 49 47
18 15 13 11 9 7 4 4 8 12 15 16 16 18 19 19 21 23 25 27 25 25 29 29 27 29 29 32 31 30 33 36 32 30 30 33 37 51 52 52 51 52 51
15 14 12 10 8 4 6 11 13 14 15 19 21 24 25 25 23 24 22 21 26 29 30 31 34 33 31 32 35 36 35 36 36 46 33 33 35 42 44 47 52 53 56
16 13 11 7 2 5 12 14 16 18 21 22 23 23 25 25 23 22 21 20 18 22 25 28 29 31 31 29 29 30 30 29 32 29 29 33 41 42 44 45 52 55 55
Wind_Direction
164 170 165 161 158 155 155 156 153 146 142 136 130 121 116 109 105 108 122 127 122 112 106 106 104 102 100 95 86 74 80 87 87 82 69 50 54 59 72 57 67 82 85
173 170 167 166 162 159 158 157 158 152 148 142 137 130 121 114 112 113 123 130 132 123 114 110 105 105 105 105 92 95 96 88 80 80 68 70 42 56 44 39 59 81 88
178 168 169 173 167 164 163 162 163 159 155 150 144 140 131 119 114 116 125 131 132 129 125 119 119 117 117 114 102 111 109 98 77 63 88 74 28 56 58 41 46 97 114
165 171 174 176 172 168 169 169 168 167 164 161 156 152 150 137 125 121 129 136 139 136 130 122 121 123 127 124 115 128 120 99 87 81 86 75 45 25 75 70 71 62 57
167 172 177 179 177 172 172 175 174 172 173 170 168 165 160 152 143 138 142 144 147 145 143 134 126 132 136 136 130 137 134 130 194 82 23 16 15 353 349 94 100 95 84
168 173 183 184 182 178 176 177 176 177 176 178 176 174 172 176 177 171 168 163 163 162 161 157 143 155 154 157 148 150 153 176 233 282 350 343 334 315 317 326 122 122 116
155 175 181 186 187 184 181 180 182 183 182 185 184 185 186 183 203 209 200 193 188 185 183 186 183 187 181 178 170 163 171 189 228 244 258 292 326 339 337 311 325 142 169
148 163 176 184 188 189 190 187 189 190 193 195 195 195 202 205 209 222 220 217 211 208 208 212 208 210 208 200 196 186 186 202 215 231 255 247 293 311 317 307 300 299 283
164 159 177 186 191 194 195 195 196 197 202 206 209 211 216 219 226 228 227 229 229 225 227 230 227 225 227 225 217 201 194 215 227 237 248 248 267 304 318 316 299 292 295
177 170 185 193 197 198 199 198 200 204 208 214 220 225 230 234 236 236 236 237 240 240 241 236 237 236 236 244 240 220 201 223 225 241 248 248 259 275 289 304 296 285 285
187 186 185 199 206 207 207 206 207 209 213 219 227 233 240 245 246 242 244 244 246 250 251 248 250 248 245 242 247 235 223 225 226 235 248 245 258 276 281 295 293 284 282
199 191 191 202 207 212 214 215 218 220 225 230 237 244 250 255 257 255 250 250 253 254 252 250 251 255 256 257 250 244 233 230 229 236 249 248 257 267 275 287 292 282 277
235 216 196 172 197 219 225 222 225 230 237 245 256 260 262 264 264 261 256 254 258 259 258 251 254 255 263 272 267 255 242 231 233 240 250 253 255 264 273 277 284 284 273
213 210 194 154 128 177 230 228 226 223 222 243 292 263 262 272 270 267 263 259 265 268 280 278 260 263 267 268 270 265 252 237 236 241 251 255 259 265 272 279 279 279 273
205 197 209 194 214 28 275 224 208 198 223 251 280 289 297 307 301 281 271 266 267 267 278 286 290 284 277 273 271 268 255 248 238 240 250 258 263 265 270 275 281 280 269
183 211 218 217 191 102 2 222 203 223 222 239 251 255 254 264 282 300 298 286 279 279 279 281 283 284 279 273 276 278 264 247 245 242 250 257 263 263 268 273 277 279 273
183 203 208 215 192 169 136 90 236 243 252 249 253 261 267 262 263 270 275 280 286 287 290 281 277 276 271 270 268 274 273 262 251 251 251 256 263 263 267 269 274 279 276
187 194 195 206 194 172 162 186 215 235 250 260 267 273 275 276 273 269 269 271 278 283 287 282 275 274 277 270 270 268 271 269 259 259 256 256 258 263 267 268 269 274 277
164 162 175 182 183 164 168 201 216 224 235 251 263 265 270 279 279 266 263 270 269 274 279 280 279 275 279 276 272 274 266 264 264 258 257 260 261 263 265 266 267 270 272
129 136 141 147 158 171 158 143 154 163 179 256 278 283 289 282 277 275 274 275 276 275 277 278 276 278 278 276 278 276 269 265 260 258 255 259 260 262 265 263 263 266 268
140 138 139 147 142 143 133 142 129 102 66 36 10 347 326 307 302 299 298 295 289 283 282 281 285 284 280 277 277 269 271 266 258 261 256 253 255 260 260 260 257 260 262
145 144 143 140 145 155 152 137 107 81 28 343 335 328 313 301 302 299 295 298 303 301 293 289 290 290 288 284 278 287 272 266 250 258 254 249 253 258 260 257 253 254 258
149 143 144 142 136 126 116 116 151 202 288 311 315 314 310 309 308 307 305 305 308 307 302 297 293 291 295 289 286 281 272 258 259 258 249 254 254 252 255 256 255 252 254
148 146 142 134 120 108 83 349 316 309 309 312 313 312 308 308 303 301 301 306 309 309 310 307 302 298 294 297 291 281 279 279 275 274 267 265 260 253 251 251 252 253 252
140 138 138 137 136 115 354 337 324 310 305 305 307 306 303 304 312 312 313 311 310 311 309 306 307 306 300 284 285 285 288 284 290 260 266 265 259 257 254 258 257 255 250
138 144 151 161 202 305 326 324 315 308 304 303 305 307 304 303 306 304 304 308 307 304 303 306 311 310 305 299 294 287 289 279 269 277 261 274 267 261 263 256 255 248 251
Height
1524 1526 1528 1529 1531 1532 1533 1536 1537 1538 1539 1541 1542 1544 1545 1546 1547 1547 1548 1548 1549 1549 1550 1550 1551 1551 1552 1552 1553 1553 1553 1552 1552 1551 1551 1551 1551 1550 1550 1550 1550 1549 1549
1523 1525 1528 1530 1531 1533 1535 1537 1539 1540 1541 1541 1542 1544 1545 1546 1547 1548 1548 1549 1550 1550 1551 1552 1552 1553 1553 1554 1554 1553 1553 1554 1554 1553 1552 1552 1552 1552 1552 1551 1550 1550 1550
1522 1524 1526 1529 1531 1533 1535 1538 1540 1541 1543 1543 1544 1545 1546 1546 1548 1548 1548 1549 1550 1551 1552 1552 1553 1553 1554 1555 1555 1555 1554 1553 1554 1554 1553 1553 1554 1553 1553 1553 1551 1551 1551
1521 1523 1525 1528 1531 1533 1536 1538 1540 1541 1542 1544 1544 1545 1547 1547 1548 1548 1549 1549 1550 1551 1552 1552 1554 1554 1554 1555 1556 1555 1556 1555 1554 1554 1554 1554 1555 1555 1554 1554 1554 1553 1551
1520 1522 1525 1529 1531 1533 1535 1538 1539 1540 1543 1544 1545 1546 1547 1548 1548 1548 1549 1550 1551 1552 1552 1553 1553 1554 1554 1555 1555 1556 1556 1555 1554 1555 1555 1556 1555 1555 1555 1555 1555 1555 1554
1520 1522 1525 1528 1531 1533 1535 1538 1540 1541 1542 1545 1546 1547 1548 1548 1548 1548 1549 1550 1551 1552 1553 1553 1554 1554 1554 1555 1555 1555 1556 1554 1553 1554 1556 1556 1556 1555 1555 1554 1554 1554 1554
1520 1522 1524 1528 1532 1534 1536 1538 1540 1541 1542 1544 1545 1546 1547 1547 1548 1549 1549 1550 1550 1551 1552 1552 1553 1554 1555 1555 1555 1555 1556 1554 1553 1553 1554 1555 1556 1555 1554 1554 1553 1553 1552
1521 1522 1524 1528 1531 1534 1537 1538 1540 1541 1543 1544 1546 1547 1548 1548 1548 1548 1549 1549 1550 1551 1551 1552 1552 1553 1554 1554 1555 1555 1555 1554 1553 1553 1553 1554 1555 1555 1554 1553 1553 1552 1551
1522 1523 1524 1527 1530 1533 1536 1538 1540 1541 1543 1544 1545 1546 1547 1547 1548 1547 1548 1548 1549 1549 1550 1551 1552 1552 1552 1553 1554 1554 1555 1553 1553 1552 1552 1553 1554 1554 1554 1553 1553 1552 1551
1522 1524 1525 1527 1530 1532 1534 1537 1539 1540 1542 1544 1544 1545 1546 1546 1547 1547 1547 1548 1548 1549 1549 1549 1550 1550 1551 1551 1553 1553 1553 1551 1552 1551 1551 1552 1553 1553 1553 1553 1551 1551 1550
1522 1524 1525 1527 1529 1531 1533 1535 1537 1539 1540 1542 1543 1544 1544 1545 1545 1546 1546 1547 1547 1547 1548 1548 1548 1548 1549 1549 1550 1551 1552 1550 1550 1550 1549 1550 1550 1552 1552 1551 1550 1549 1548
1522 1523 1526 1527 1528 1530 1532 1534 1536 1538 1539 1541 1542 1542 1543 1544 1544 1545 1545 1545 1545 1545 1545 1546 1546 1546 1546 1547 1548 1548 1549 1549 1548 1548 1548 1547 1547 1548 1549 1550 1549 1548 1547
1520 1523 1525 1527 1528 1530 1531 1533 1534 1536 1538 1539 1540 1541 1542 1542 1543 1543 1543 1544 1544 1544 1543 1543 1544 1544 1544 1545 1546 1546 1546 1546 1546 1545 1545 1546 1545 1545 1545 1546 1546 1546 1546
1518 1522 1525 1527 1527 1528 1529 1529 1531 1534 1536 1538 1538 1538 1540 1540 1541 1541 1541 1541 1542 1542 1542 1542 1541 1541 1541 1541 1541 1542 1543 1543 1542 1542 1543 1543 1544 1543 1543 1543 1543 1543 1543
1518 1521 1522 1524 1526 1527 1527 1529 1530 1532 1534 1536 1537 1538 1539 1539 1539 1538 1538 1538 1538 1538 1539 1539 1539 1538 1538 1538 1537 1537 1538 1539 1538 1539 1540 1540 1540 1541 1541 1540 1539 1539 1539
1515 1517 1520 1521 1525 1526 1527 1527 1530 1531 1532 1533 1534 1535 1536 1537 1537 1537 1537 1536 1537 1536 1536 1535 1536 1537 1535 1534 1534 1533 1533 1534 1534 1534 1535 1536 1536 1537 1538 1537 1537 1536 1535
1514 1516 1517 1521 1524 1525 1527 1528 1530 1530 1531 1532 1533 1534 1534 1535 1535 1535 1534 1533 1532 1533 1533 1533 1533 1532 1532 1531 1529 1529 1529 1530 1530 1529 1530 1532 1533 1533 1534 1533 1534 1534 1533
1513 1514 1516 1518 1522 1526 1527 1529 1529 1530 1531 1531 1531 1530 1531 1532 1532 1532 1531 1531 1531 1530 1529 1528 1528 1527 1526 1526 1526 1526 1526 1525 1524 1525 1525 1525 1527 1528 1528 1529 1529 1530 1530
1511 1513 1515 1519 1523 1525 1526 1527 1528 1529 1529 1529 1529 1529 1530 1529 1528 1527 1527 1527 1526 1526 1525 1524 1524 1523 1521 1521 1520 1519 1520 1519 1518 1518 1518 1518 1519 1520 1522 1523 1524 1526 1526
1510 1513 1517 1520 1522 1524 1525 1526 1527 1527 1528 1528 1527 1527 1527 1526 1526 1526 1525 1524 1523 1522 1522 1521 1520 1520 1518 1515 1514 1513 1511 1511 1510 1509 1510 1510 1511 1513 1514 1517 1518 1517 1519
1510 1512 1516 1519 1522 1524 1525 1525 1525 1526 1526 1526 1526 1527 1526 1526 1524 1523 1522 1521 1519 1517 1516 1515 1513 1512 1509 1510 1508 1505 1502 1502 1504 1505 1507 1504 1501 1504 1505 1507 1508 1509 1511
1509 1512 1515 1518 1521 1523 1524 1525 1525 1525 1526 1525 1524 1524 1523 1522 1521 1520 1518 1517 1516 1514 1512 1510 1508 1506 1503 1504 1502 1497 1493 1492 1492 1494 1494 1498 1493 1495 1497 1498 1500 1502 1503
1508 1510 1513 1516 1519 1522 1523 1524 1524 1524 1524 1523 1522 1521 1521 1519 1517 1516 1515 1512 1511 1509 1507 1505 1503 1501 1498 1497 1497 1496 1490 1486 1484 1485 1485 1488 1482 1483 1486 1490 1491 1493 1497
1508 1510 1513 1516 1518 1519 1521 1522 1522 1521 1520 1519 1518 1517 1517 1516 1514 1513 1510 1509 1507 1505 1503 1501 1499 1497 1494 1490 1491 1490 1486 1482 1482 1482 1481 1476 1471 1471 1475 1477 1481 1484 1485
1508 1510 1513 1514 1516 1518 1519 1520 1519 1519 1518 1516 1515 1513 1512 1511 1509 1508 1506 1504 1503 1501 1499 1496 1494 1491 1490 1488 1486 1482 1480 1476 1472 1469 1463 1465 1467 1465 1466 1468 1470 1472 1476
1506 1508 1510 1513 1515 1517 1517 1516 1516 1515 1513 1511 1509 1507 1506 1505 1504 1503 1502 1500 1498 1496 1493 1491 1489 1487 1485 1482 1479 1476 1474 1471 1468 1466 1456 1457 1458 1457 1458 1458 1458 1462 1467